Location: Gostibe
(41.8094°N, 44.3128°E)
Time: 15:59:34
(UTC+00:00)

Daily predictions for brighter satellites

Satellite Brightness Start Highest point End
(mag) Time Altitude Azimuth Time Altitude Azimuth Time Altitude Azimuth
BREEZE M DEB (TANK) 3.1 15:17:30 10° W 15:20:05 76° N 15:32:22 10° ENE
Lacrosse 5 rocket 4.1 15:33:57 10° NNW 15:35:35 12° N 15:37:13 10° NNE
CZ-4C R/B 4.2 15:32:26 10° N 15:35:54 50° WNW 15:39:21 10° SSW
OBJECT-B 2.9 15:36:58 10° E 15:37:59 11° ENE 15:39:01 10° NE
Cosmos 921 Rocket 4.2 15:36:48 10° N 15:40:25 25° ENE 15:43:56 10° ESE
NOSS 2-1 (E) 4.4 15:35:44 10° NW 15:40:56 86° NE 15:48:22 10° SE
Cosmos 1703 Rocket 4.5 15:38:02 10° NNW 15:42:26 56° W 15:46:45 10° S
CZ-3B R/B 2.9 15:31:15 10° NW 15:43:05 80° NE 15:46:33 10° SE
ISS -2.1 15:41:32 10° S 15:43:50 17° SE 15:46:08 10° E
OAO 2 Rocket 4.4 15:39:17 10° SW 15:43:57 32° SSE 15:48:36 10° ESE
USA 307 3.4 15:39:55 10° WSW 15:44:05 60° NW 15:48:17 10° NE
H-2A R/B 3.1 15:40:10 10° S 15:44:55 49° W 15:49:49 10° NNW
SL-4 R/B 2.0 15:42:31 10° NW 15:45:52 50° NNE 15:49:17 10° ESE
Meteor 1-23 Rocket 4.2 15:41:40 10° N 15:47:27 77° E 15:53:07 10° SSE
Okean 1-7 4.4 15:46:25 10° NNW 15:50:38 45° W 15:54:48 10° SSW
Cosmos 1842 3.9 15:51:14 10° N 15:54:53 35° ENE 15:58:31 10° SE
SJ-6B 4.4 15:53:06 11° ESE 15:55:56 20° ENE 15:58:58 10° NNE
Cosmos 2221 Rocket 3.9 15:53:42 10° N 15:57:57 43° ENE 16:02:09 10° SSE
COSMOS 2406 3.3 15:53:40 10° NNW 15:59:25 64° ENE 16:05:07 10° SE
YAOGAN 1 2.7 15:55:45 10° S 16:00:03 80° WSW 16:04:25 10° NNW
Cosmos 540 Rocket 4.3 15:55:16 10° NNW 16:00:15 53° WSW 16:05:12 10° S
USA 306 4.0 15:56:57 10° WSW 16:00:58 43° NNW 16:05:01 10° NE
USA 308 4.0 15:59:02 10° WSW 16:03:05 45° NNW 16:07:10 10° NE
Cosmos 1833 Rocket 2.6 15:58:10 10° NNW 16:03:50 80° ENE 16:09:26 10° SSE
Okean-O 2.6 16:03:52 10° SSE 16:08:17 74° ENE 16:12:43 10° N
Inspiration4 3.0 16:05:14 10° SSW 16:09:19 45° SE 16:13:01 12° ENE
HJ-1C 3.9 16:09:47 10° S 16:13:02 59° W 16:16:18 10° NNW
Cosmos 1674 Rocket 4.1 16:10:01 10° N 16:14:07 37° ENE 16:17:22 14° SE
Cosmos 2082 Rocket 2.5 16:09:00 10° NNW 16:14:33 48° ENE 16:18:59 16° SE
CSL-04 Rocket 3.6 16:10:56 10° SSE 16:16:10 65° ENE 16:21:30 10° N
Cosmos 2181 Rocket 3.9 16:10:01 10° N 16:16:11 73° E 16:22:23 10° SSE
Cosmos 1570 Rocket 4.1 16:12:33 10° NNW 16:17:54 80° WSW 16:23:11 10° SSE
Hubble Space Telescope 3.1 16:17:54 10° SSW 16:19:22 12° S 16:20:51 10° SSE
Lacrosse 4 Rocket 2.0 16:16:08 10° SW 16:20:06 58° WNW 16:24:06 10° NNE
CZ-4B R/B 1.6 16:22:06 10° N 16:25:06 63° WNW 16:28:06 10° SSW
Resurs 01 Rocket 3.4 16:25:13 15° ENE 16:25:20 15° ENE 16:27:48 10° NNE
USA 186 1.5 16:27:08 43° E 16:27:25 45° ENE 16:30:05 10° N
BREEZE-M DEB (TANK) 1.9 16:26:46 10° NW 16:28:37 49° NNE 16:28:48 46° NE
USA 276 3.1 16:27:02 10° SSW 16:29:26 28° SSE 16:29:26 28° SSE
Okean 2 3.5 16:27:52 10° N 16:31:52 52° E 16:34:05 24° SSE
MetOp-A 4.1 16:27:03 10° SSE 16:32:24 86° WSW 16:37:47 10° NNW
Cosmos 2278 Rocket 3.0 16:28:27 10° SW 16:33:59 54° WNW 16:39:35 10° NNE
Ariane Rocket 4.0 16:32:44 25° E 16:34:08 28° ENE 16:38:25 10° N
Cosmos 2297 4.1 16:31:41 10° S 16:36:52 38° ESE 16:42:06 10° NE
CZ-4 R/B 3.5 16:33:39 10° SSW 16:36:56 26° W 16:40:11 10° NW
Cosmos 1733 Rocket 3.4 16:32:47 10° SSW 16:37:05 66° W 16:41:24 10° N
Helios 1A Rocket 3.6 16:37:14 32° E 16:38:03 36° ENE 16:41:49 10° N
Cosmos 2184 Rocket 4.0 16:32:04 10° S 16:38:22 67° E 16:44:39 10° NNE
CSL-04 DEB 4.5 16:36:16 10° NNE 16:40:08 47° E 16:42:27 21° SSE
Cosmos 1340 2.6 16:37:34 10° N 16:41:19 64° E 16:42:39 36° SSE
PSLV R/B 4.1 16:37:10 10° N 16:41:21 76° WNW 16:45:29 10° SSW
H-2A R/B 4.4 16:41:10 10° N 16:44:44 26° WNW 16:48:14 10° WSW
SeaSat 1 2.9 16:45:48 13° SSE 16:50:11 59° WSW 16:55:04 10° NW
Cosmos 1503 Rocket 4.1 16:45:34 10° S 16:50:36 50° ESE 16:55:37 10° NNE
COSMOS 2455 3.6 16:45:59 10° NNW 16:51:31 36° NE 16:53:16 30° E
Resurs 1-3 3.9 16:51:34 43° E 16:52:14 47° ENE 16:56:27 10° N
USA 215 4.2 16:49:38 11° SSE 16:55:31 41° SW 17:01:40 10° WNW
Cosmos 2154 Rocket 4.0 16:49:51 10° S 16:56:04 64° E 17:02:21 10° NNE
EO 1 Delta rocket 4.3 16:56:01 39° E 16:56:15 39° ENE 17:00:44 10° N
Cosmos 1610 Rocket 4.5 16:51:05 10° S 16:57:15 61° E 17:03:23 10° NNE
BREEZE-M DEB (TANK) 4.4 16:51:10 10° WSW 16:59:18 48° NNW 17:01:06 24° NE
Cosmos 1626 4.2 16:57:21 10° NNE 16:58:24 16° NNE 16:58:24 16° NNE
Cosmos 1354 Rocket 4.0 16:57:01 10° S 17:02:07 53° ESE 17:07:13 10° NNE
Cosmos 1943 Rocket 2.1 16:57:07 10° S 17:02:30 56° ESE 17:07:58 10° NNE
Cosmos 1238 Rocket 3.9 16:56:17 10° S 17:02:53 83° E 17:09:10 10° N
IGS 5A 4.3 17:06:09 36° NE 17:06:09 36° NE 17:09:16 10° N
Cosmos 1975 4.3 17:02:32 10° SW 17:06:13 36° WNW 17:09:56 10° N
Cosmos 1707 3.0 17:04:02 10° NNW 17:07:55 67° W 17:08:56 45° SSW
Cosmos 1295 Rocket 4.4 17:02:22 10° S 17:08:25 69° E 17:14:39 10° NNE
Cosmos 1975 Rocket 4.2 17:04:58 10° N 17:07:46 29° NE 17:07:46 29° NE
ERBS 4.4 17:06:25 10° W 17:09:12 25° NW 17:10:54 17° N
OBJECT-B 2.2 17:08:44 28° SW 17:09:42 35° W 17:12:42 10° NNW
Meteor 1-12 Rocket 4.3 17:14:44 45° SE 17:16:17 59° E 17:22:12 10° NNE
Lacrosse 5 rocket 3.5 17:13:16 10° NNW 17:16:24 18° NNE 17:16:56 18° NNE
USA 281 3.1 17:12:32 10° NNE 17:19:07 70° ESE 17:25:38 10° SSW
Nadezhda 3 Rocket 3.8 17:14:01 10° N 17:20:12 84° E 17:22:35 40° SSE
ISS -2.4 17:17:03 10° WSW 17:19:21 38° W 17:19:21 38° W
Cosmos 1461 4.1 17:18:56 10° NNW 17:21:32 30° NNE 17:21:32 30° NNE
Cosmos 1908 Rocket 4.2 17:20:37 14° SSW 17:24:23 57° W 17:28:49 10° N
SL-4 R/B 3.7 17:22:25 10° W 17:24:50 22° SW 17:24:50 22° SW
OAO 2 Rocket 4.2 17:23:21 10° WSW 17:27:38 38° SSW 17:27:38 38° SSW
SJ-6B 4.4 17:28:44 25° SW 17:30:19 34° W 17:34:06 10° NNW
Cosmos 1400 Rocket 3.7 17:31:48 37° WSW 17:32:57 48° WNW 17:36:57 10° N
Cosmos 2341 Rocket 3.9 17:33:51 62° E 17:33:54 62° E 17:40:09 10° NNE
ATLAS CENTAUR R/B 2.9 17:37:53 10° NNW 17:41:01 33° NNE 17:41:01 33° NNE
Cosmos 1674 4.4 17:41:11 10° NNW 17:43:13 29° NNW 17:43:13 29° NNW
MetOp-B 4.5 17:50:08 56° NNE 17:50:08 56° NNE 17:54:27 10° N
Inspiration4 4.0 17:45:35 10° W 17:49:12 39° NW 17:49:12 39° NW
SPOT 3 Rocket 4.0 17:55:21 55° N 17:55:21 55° N 17:59:22 10° NNW
BREEZE-M R/B 4.0 17:51:08 10° WNW 17:53:44 32° NNW 17:53:44 32° NNW
Cosmos 2082 Rocket 4.1 17:53:45 10° NW 17:58:17 25° WSW 18:00:52 18° SW
Cosmos 773 Rocket 4.5 17:53:17 10° NNW 17:57:25 57° NNW 17:57:25 57° NNW
Resurs 01 Rocket 3.0 18:02:48 37° NW 18:02:48 37° NW 18:05:43 10° NNW
Ariane Rocket 4.3 18:12:57 35° W 18:12:57 35° W 18:17:35 10° NNW
Terra 4.2 18:17:22 15° NNE 18:17:22 15° NNE 18:18:22 10° N
Cosmos 2369 Rocket 4.0 18:30:35 24° NNE 18:30:35 24° NNE 18:32:46 10° NNE
COSMOS 2455 4.0 18:31:54 10° NW 18:36:25 37° W 18:36:25 37° W
Cosmos 1943 Rocket 4.3 18:42:14 10° WSW 18:46:36 23° NW 18:51:02 10° N
Lacrosse 5 rocket 4.5 18:51:52 10° NW 18:52:31 14° NW 18:52:31 14° NW
ATLAS 3B R/B 4.3 22:03:32 27° NNE 22:03:32 27° NNE 22:06:26 10° NNE
SL-16 R/B 4.2 22:27:32 28° N 22:27:32 28° N 22:30:23 10° N
ADEOS Rocket 4.4 22:27:38 40° N 22:27:38 40° N 22:32:16 10° N
Cosmos 2322 Rocket 4.3 22:36:52 22° NE 22:36:52 22° NE 22:38:55 10° NE
ADEOS II 4.4 22:31:49 10° NNE 22:33:31 19° NE 22:33:31 19° NE
Cosmos 2360 Rocket 3.6 23:12:13 34° NE 23:12:13 34° NE 23:15:39 10° NE
Cosmos 1844 Rocket 4.2 23:10:54 10° NNW 23:14:22 32° NNE 23:14:22 32° NNE
Cosmos 2344 4.3 23:07:02 10° NW 23:16:40 80° WSW 23:30:15 10° SSE
ATLAS 5 CENTAUR R/B 4.2 23:20:19 16° NE 23:20:19 16° NE 23:21:17 10° NE
IDEFIX/ARIANE 42P 3.8 23:24:44 10° NNE 23:28:11 40° NE 23:28:11 40° NE
Cosmos 2219 Rocket 3.7 23:32:01 29° ESE 23:32:07 29° ESE 23:36:51 10° NE
Cosmos 1980 Rocket 4.4 23:35:31 14° NNW 23:35:31 14° NNW 23:37:14 10° N
SL-16 R/B 3.5 23:39:54 32° NNW 23:39:54 32° NNW 23:43:19 10° NNE
Resurs 1-4 Rocket 4.1 23:40:14 10° N 23:41:56 18° NNW 23:41:56 18° NNW
USA 229 DEB 4.3 23:47:33 41° SE 23:48:21 43° ESE 23:54:35 10° NE
USA 229 4.3 23:47:37 41° SE 23:48:27 43° ESE 23:54:41 10° NE
Cosmos 1844 4.1 23:43:22 10° NNW 23:49:08 64° ENE 23:49:44 60° E
COSMOS 2428 4.0 23:48:27 30° SE 23:49:33 32° ESE 23:54:32 10° NE
Cosmos 2322 4.4 23:49:40 46° ESE 23:49:51 47° ESE 23:55:19 10° NE
ATLAS 3B R/B 4.2 23:50:47 22° NW 23:51:22 22° NNW 23:56:37 10° NNE
